• In Hungary
  • List of Countries
  • For 7 days
  • Water Temperature
  • Satellite Maps
  • Weather Map
  • News
  • Weather Widgets
  • user-avatar
    Login

    Hourly Weather Exeter

    Today, 15 December, Friday

    Time Temperature Precipitation Wind Pressure Humidity
    00:00 +2°C° 0 mm 8 mps 738 mmHg 82%
    01:00 +2°C° 0 mm 8 mps 738 mmHg 81%
    02:00 +3°C° 0 mm 9 mps 738 mmHg 80%
    03:00 +3°C° 0 mm 10 mps 738 mmHg 80%
    04:00 +3°C° 0.2 mm 10 mps 738 mmHg 79%
    05:00 +3°C° 0.2 mm 11 mps 739 mmHg 78%
    06:00 +3°C° 0 mm 10 mps 739 mmHg 78%
    07:00 +2°C° 0 mm 9 mps 740 mmHg 78%
    08:00 +2°C° 0 mm 9 mps 741 mmHg 78%
    09:00 +2°C° 0 mm 8 mps 742 mmHg 79%
    10:00 +2°C° 0 mm 8 mps 743 mmHg 76%
    11:00 +4°C° 0 mm 8 mps 744 mmHg 73%
    12:00 +5°C° 0 mm 8 mps 745 mmHg 71%
    13:00 +5°C° 0 mm 8 mps 745 mmHg 72%
    14:00 +5°C° 0 mm 8 mps 746 mmHg 73%
    15:00 +5°C° 0 mm 7 mps 747 mmHg 75%
    16:00 +4°C° 0 mm 7 mps 747 mmHg 77%
    17:00 +4°C° 0 mm 7 mps 748 mmHg 79%
    18:00 +3°C° 0 mm 7 mps 749 mmHg 80%
    19:00 +3°C° 0 mm 7 mps 750 mmHg 80%
    20:00 +3°C° 0 mm 7 mps 751 mmHg 80%
    21:00 +2°C° 0 mm 6 mps 752 mmHg 80%
    22:00 +2°C° 0 mm 6 mps 752 mmHg 80%
    23:00 +2°C° 0 mm 6 mps 753 mmHg 80%

    Tomorrow, 16 December, Saturday

    Time Temperature Precipitation Wind Pressure Humidity
    00:00 +2°C° 0 mm 5 mps 753 mmHg 80%
    01:00 +2°C° 0 mm 5 mps 754 mmHg 81%
    02:00 +2°C° 0 mm 5 mps 754 mmHg 81%
    03:00 +2°C° 0 mm 5 mps 754 mmHg 82%
    04:00 +2°C° 0 mm 5 mps 755 mmHg 82%
    05:00 +2°C° 0 mm 5 mps 755 mmHg 83%
    06:00 +2°C° 0 mm 5 mps 756 mmHg 83%
    07:00 +2°C° 0 mm 5 mps 756 mmHg 83%
    08:00 +2°C° 0 mm 5 mps 757 mmHg 83%
    09:00 +2°C° 0 mm 5 mps 758 mmHg 83%
    10:00 +3°C° 0.1 mm 6 mps 758 mmHg 81%
    11:00 +4°C° 0.1 mm 6 mps 758 mmHg 79%
    12:00 +5°C° 0.1 mm 6 mps 758 mmHg 77%
    13:00 +5°C° 0.3 mm 7 mps 758 mmHg 78%
    14:00 +5°C° 0.3 mm 7 mps 758 mmHg 79%
    15:00 +5°C° 0.3 mm 7 mps 759 mmHg 81%
    16:00 +5°C° 0.2 mm 7 mps 759 mmHg 83%
    17:00 +4°C° 0.2 mm 6 mps 759 mmHg 84%
    18:00 +5°C° 0.2 mm 5 mps 760 mmHg 86%
    19:00 +5°C° 0.1 mm 5 mps 760 mmHg 87%
    20:00 +5°C° 0.1 mm 5 mps 760 mmHg 87%
    21:00 +5°C° 0.1 mm 4 mps 761 mmHg 87%
    22:00 +5°C° 0 mm 4 mps 761 mmHg 87%
    23:00 +4°C° 0 mm 3 mps 761 mmHg 87%

    Day after tomorrow, 17 December, Sunday

    Time Temperature Precipitation Wind Pressure Humidity
    00:00 +4°C° 0 mm 3 mps 762 mmHg 87%
    01:00 +4°C° 0 mm 3 mps 762 mmHg 88%
    02:00 +4°C° 0 mm 3 mps 762 mmHg 88%
    03:00 +4°C° 0 mm 3 mps 762 mmHg 89%
    04:00 +4°C° 0 mm 3 mps 762 mmHg 89%
    05:00 +4°C° 0 mm 3 mps 762 mmHg 89%
    06:00 +4°C° 0 mm 3 mps 762 mmHg 90%
    07:00 +4°C° 0 mm 3 mps 762 mmHg 90%
    08:00 +5°C° 0 mm 4 mps 762 mmHg 90%
    09:00 +5°C° 0 mm 4 mps 762 mmHg 91%
    10:00 +6°C° 0 mm 5 mps 762 mmHg 88%
    11:00 +7°C° 0 mm 6 mps 762 mmHg 85%
    12:00 +8°C° 0 mm 6 mps 762 mmHg 82%
    13:00 +8°C° 0.1 mm 7 mps 762 mmHg 83%
    14:00 +7°C° 0.1 mm 8 mps 762 mmHg 85%
    15:00 +7°C° 0.1 mm 8 mps 761 mmHg 86%
    16:00 +7°C° 0.3 mm 8 mps 761 mmHg 88%
    17:00 +7°C° 0.3 mm 8 mps 761 mmHg 89%
    18:00 +7°C° 0.3 mm 8 mps 761 mmHg 91%
    19:00 +9°C° 0.1 mm 8 mps 761 mmHg 92%
    20:00 +9°C° 0.1 mm 8 mps 761 mmHg 93%
    21:00 +10°C° 0.1 mm 8 mps 762 mmHg 94%
    22:00 +10°C° 0.1 mm 7 mps 762 mmHg 94%
    23:00 +10°C° 0.1 mm 7 mps 762 mmHg 95%

    18 December, Monday

    Time Temperature Precipitation Wind Pressure Humidity
    00:00 +10°C° 0.1 mm 6 mps 762 mmHg 95%
    01:00 +10°C° 0.1 mm 6 mps 762 mmHg 95%
    02:00 +10°C° 0.1 mm 6 mps 763 mmHg 96%
    03:00 +10°C° 0.1 mm 6 mps 763 mmHg 96%
    04:00 +10°C° 0 mm 5 mps 763 mmHg 96%
    05:00 +10°C° 0 mm 5 mps 763 mmHg 96%
    06:00 +11°C° 0 mm 4 mps 763 mmHg 96%
    07:00 +11°C° 0.1 mm 4 mps 764 mmHg 96%
    08:00 +11°C° 0.1 mm 4 mps 764 mmHg 96%
    09:00 +11°C° 0.1 mm 4 mps 764 mmHg 97%
    10:00 +11°C° 0.1 mm 4 mps 765 mmHg 96%
    11:00 +12°C° 0.1 mm 4 mps 765 mmHg 95%
    12:00 +12°C° 0.1 mm 4 mps 765 mmHg 95%
    13:00 +12°C° 0.1 mm 4 mps 765 mmHg 95%
    14:00 +12°C° 0.1 mm 4 mps 765 mmHg 95%
    15:00 +12°C° 0.1 mm 4 mps 765 mmHg 95%
    16:00 +12°C° 0 mm 4 mps 765 mmHg 96%
    17:00 +12°C° 0 mm 3 mps 765 mmHg 96%
    18:00 +12°C° 0 mm 3 mps 765 mmHg 97%
    19:00 +12°C° 0.1 mm 3 mps 765 mmHg 97%
    20:00 +12°C° 0.1 mm 3 mps 766 mmHg 97%
    21:00 +12°C° 0.1 mm 3 mps 766 mmHg 97%
    22:00 +12°C° 0.1 mm 3 mps 766 mmHg 97%
    23:00 +12°C° 0.1 mm 3 mps 766 mmHg 97%

    19 December, Tuesday

    Time Temperature Precipitation Wind Pressure Humidity
    00:00 +12°C° 0.1 mm 3 mps 766 mmHg 97%
    01:00 +12°C° 0 mm 3 mps 766 mmHg 97%
    02:00 +12°C° 0 mm 3 mps 766 mmHg 97%
    03:00 +12°C° 0 mm 4 mps 766 mmHg 97%
    04:00 +12°C° 0 mm 4 mps 766 mmHg 97%
    05:00 +12°C° 0 mm 4 mps 766 mmHg 97%
    06:00 +12°C° 0 mm 4 mps 766 mmHg 97%
    07:00 +12°C° 0 mm 3 mps 767 mmHg 96%
    08:00 +12°C° 0 mm 3 mps 767 mmHg 96%
    09:00 +12°C° 0 mm 3 mps 768 mmHg 96%
    10:00 +12°C° 0 mm 3 mps 768 mmHg 95%
    11:00 +13°C° 0 mm 4 mps 768 mmHg 94%
    12:00 +13°C° 0 mm 4 mps 768 mmHg 92%
    13:00 +13°C° 0 mm 4 mps 768 mmHg 93%
    14:00 +13°C° 0 mm 4 mps 768 mmHg 94%
    15:00 +12°C° 0 mm 4 mps 768 mmHg 94%
    16:00 +12°C° 0 mm 4 mps 768 mmHg 95%
    17:00 +12°C° 0 mm 4 mps 768 mmHg 95%
    18:00 +12°C° 0 mm 4 mps 768 mmHg 96%
    19:00 +12°C° 0 mm 4 mps 769 mmHg 96%
    20:00 +12°C° 0 mm 4 mps 769 mmHg 96%
    21:00 +12°C° 0 mm 4 mps 769 mmHg 95%
    22:00 +11°C° 0 mm 4 mps 769 mmHg 95%
    23:00 +11°C° 0 mm 4 mps 769 mmHg 95%

    20 December, Wednesday

    Time Temperature Precipitation Wind Pressure Humidity
    00:00 +11°C° 0 mm 4 mps 769 mmHg 95%
    01:00 +10°C° 0 mm 3 mps 769 mmHg 95%
    02:00 +10°C° 0 mm 3 mps 770 mmHg 96%
    03:00 +9°C° 0 mm 3 mps 770 mmHg 96%
    04:00 +9°C° 0 mm 3 mps 770 mmHg 96%
    05:00 +9°C° 0 mm 3 mps 770 mmHg 95%
    06:00 +9°C° 0 mm 3 mps 770 mmHg 95%
    07:00 +9°C° 0 mm 3 mps 770 mmHg 95%
    08:00 +9°C° 0 mm 3 mps 770 mmHg 95%
    09:00 +9°C° 0 mm 3 mps 771 mmHg 95%
    10:00 +10°C° 0 mm 3 mps 771 mmHg 93%
    11:00 +11°C° 0 mm 3 mps 771 mmHg 90%
    12:00 +12°C° 0 mm 3 mps 771 mmHg 88%
    13:00 +12°C° 0 mm 3 mps 771 mmHg 89%
    14:00 +11°C° 0 mm 3 mps 771 mmHg 90%
    15:00 +11°C° 0 mm 3 mps 771 mmHg 90%
    16:00 +10°C° 0 mm 3 mps 771 mmHg 92%
    17:00 +10°C° 0 mm 3 mps 771 mmHg 93%
    18:00 +9°C° 0 mm 3 mps 771 mmHg 95%
    19:00 +9°C° 0 mm 3 mps 771 mmHg 94%
    20:00 +8°C° 0 mm 4 mps 771 mmHg 94%
    21:00 +8°C° 0 mm 4 mps 771 mmHg 93%
    22:00 +8°C° 0 mm 4 mps 771 mmHg 92%
    23:00 +8°C° 0 mm 5 mps 771 mmHg 92%
    Show more